User: anonymous   Login
Location: Unspecified
(0.0000°N, 0.0000°E)
Time: 18:27:10
(UTC+01:00)
Language:

SWIFT - Orbit

View from above orbital plane
View from above orbital plane
View from above satellite
View from above satellite

Ground track
Ground track

The orbit data is extracted from the following two-line orbital elements,

1 28485U 04047A   17022.46580567 +.00001089 +00000-0 +45727-4 0  9992
2 28485 020.5577 073.3173 0011278 196.3847 163.6223 15.03541582666225
Epoch (UTC): 22 January 2017 11:10:45
Eccentricity: 0.0011278
inclination: 20.5577°
perigee height: 548 km
apogee height: 564 km
right ascension of ascending node: 73.3173°
argument of perigee: 196.3847°
revolutions per day: 15.03541582
mean anomaly at epoch: 163.6223°
orbit number at epoch: 66622

The dashed part of the orbit path shows where the satellite is in the earth's shadow,  

DLR